#timestamp,LO_Frequency,Hit,StdDev 
1508374815.5,286046996.9,Y
1508374835.3,286046996.7,P
1508374855.1,286046995.8,N
1508374875.9,286046996.3,N
1508374895.7,286046996.3,N
1508374915.5,286046996.8,N
1508374935.4,286046998.6,N
1508374955.2,286046996.9,N
1508374975.0,286046992.6,Y
1508374975.9,286046992.6,P
1508374995.8,286046992.3,P
1508375015.6,286046991.2,P
1508375035.4,286046988.7,Y
1508375055.3,286046994.2,P
1508375075.1,286046993.7,P
1508375095.8,286046994.7,P
1508375115.7,286046995.3,Y
1508375135.5,286046999.7,P
1508375155.3,286046998.5,N
1508375175.2,286046997.6,N
1508375195.9,286046997.9,N
1508375215.7,286046997.9,N
1508375235.6,286046993.4,Y
1508375255.4,286046994.9,P
1508375275.2,286046995.0,P
1508375295.1,286046997.6,N
1508375296.0,286046997.6,N
1508375315.8,286046994.9,Y
1508375335.6,286046998.3,P
1508375355.5,286046999.1,N
1508375375.3,286046998.1,N
1508375395.1,286047000.7,N
1508375415.9,286046999.0,N
1508375435.7,286047001.2,N
1508375455.5,286047001.1,N
1508375475.4,286046996.7,N
1508375495.2,286046994.9,Y
1508375515.0,286046998.7,P
1508375515.9,286046998.7,P
1508375535.8,286046999.3,P
1508375555.6,286047001.0,Y
1508375575.4,286047002.3,P
1508375595.3,286046998.3,N
1508375615.1,286046999.1,N
1508375616.0,286046999.1,N
1508375635.8,286047000.9,N
1508375655.7,286047001.9,N
1508375675.5,286047004.3,N
1508375695.3,286047001.4,N
1508375715.2,286047004.7,N
1508375735.9,286047003.7,N
1508375755.7,286046999.5,N
1508375775.6,286046999.9,N
1508375795.4,286047003.7,N
1508375815.2,286047003.1,N
1508375835.0,286047005.1,N
1508375835.9,286047005.1,N
1508375855.8,286047009.8,Y
1508375875.6,286047010.5,P
1508375895.5,286047011.0,N
1508375915.3,286047017.0,P
1508375935.1,286047018.1,Y
1508375955.9,286047008.2,P
1508375975.7,286047009.8,P
1508375995.5,286047008.9,P
1508376015.4,286047007.3,Y
1508376035.2,286046997.9,P
1508376055.0,286046997.9,N
1508376055.9,286046997.9,N
1508376075.8,286046994.9,N
1508376095.6,286046997.1,N
1508376115.4,286047001.2,N
1508376135.2,286047002.0,N
1508376155.1,286047001.6,N
1508376156.0,286047001.6,N
1508376175.8,286047001.5,N
1508376195.6,286047006.0,N
1508376215.5,286047002.0,N
1508376235.3,286046999.9,N
1508376255.1,286046997.7,N
1508376275.9,286046996.2,N
1508376295.7,286046997.4,N
1508376315.5,286046997.6,N
1508376335.4,286046996.8,N
1508376355.2,286046996.5,N
1508376375.0,286046996.7,N
1508376375.9,286046996.7,N
1508376395.8,286046998.0,N
1508376415.6,286046995.4,N
1508376435.4,286046996.3,N
1508376455.2,286046993.5,N
1508376475.1,286046996.7,N
1508376476.0,286046996.7,N
1508376495.8,286046997.3,N
1508376515.6,286046994.4,N
1508376535.5,286046994.5,N
1508376555.3,286046994.2,N
1508376575.1,286046993.4,N
1508376595.9,286046994.6,N
1508376615.7,286046993.7,N
1508376635.5,286046994.5,N
1508376655.4,286046996.3,N
1508376675.2,286046996.0,N
1508376695.0,286046997.6,N
1508376695.9,286046997.6,N
1508376715.8,286046995.3,N
1508376735.6,286046998.0,N
1508376755.4,286046995.3,N
1508376775.3,286046996.2,N
1508376795.1,286046995.6,Y
1508376796.0,286046995.6,P
1508376815.8,286046995.5,P
1508376835.7,286046996.0,P
1508376855.5,286046991.1,Y
1508376875.3,286046993.0,P
1508376895.2,286046994.7,P
1508376915.9,286046990.6,P
1508376935.7,286046991.6,Y
1508376955.6,286046997.4,P
1508376975.4,286046996.0,N
1508376995.2,286046996.3,N
1508377015.1,286046990.7,Y
1508377016.0,286046990.7,P
1508377035.8,286046993.9,N
1508377055.6,286046996.2,N
1508377075.5,286046995.6,N
1508377095.3,286046998.2,N
1508377115.1,286047000.0,N
1508377135.9,286046999.4,N
1508377155.7,286046997.5,N
1508377175.5,286046995.8,N
1508377195.4,286046993.3,N
1508377215.2,286046993.9,N
1508377235.0,286046990.9,Y
1508377235.9,286046990.9,P
1508377255.8,286046995.9,N
1508377275.6,286046997.0,N
1508377295.4,286046999.2,N
1508377315.3,286046999.3,N
1508377335.1,286046999.3,N
1508377336.0,286046999.3,N
1508377355.8,286046999.8,N
1508377375.6,286047002.8,N
1508377395.5,286047002.8,N
1508377415.3,286046999.2,N
1508377435.1,286046999.8,N
1508377455.9,286047002.8,N
1508377475.7,286047001.1,N
1508377495.5,286047001.2,N
1508377515.4,286046996.5,N
1508377535.2,286046997.8,N
1508377555.0,286046997.3,N
1508377555.9,286046997.3,N
1508377575.8,286046997.1,N
1508377595.6,286046995.5,N
1508377615.4,286046993.9,N
1508377635.3,286047001.4,N
1508377655.1,286047001.4,N
1508377656.0,286047001.4,N
1508377675.8,286047007.0,N
1508377695.7,286047010.8,Y
1508377715.5,286047011.7,P
1508377735.3,286047013.7,N
1508377755.2,286047012.9,N
1508377775.9,286047013.3,N
1508377795.7,286047015.1,N
1508377815.6,286047015.1,N
1508377835.4,286047017.2,Y
1508377855.2,286047004.5,P
1508377875.1,286047009.2,N
1508377876.0,286047009.2,P
1508377895.8,286047009.5,Y
1508377915.6,286047002.4,P
1508377935.5,286046999.3,N
1508377955.3,286046999.5,N
1508377975.1,286046998.1,N
1508377995.9,286046999.9,N
1508378015.7,286047004.1,N
1508378035.5,286047004.1,N
1508378055.4,286047001.7,N
1508378075.2,286047000.4,N
1508378095.0,286046997.4,N
1508378095.9,286046997.4,N
1508378115.8,286046995.3,N
1508378135.6,286046999.5,N
1508378155.4,286046998.9,N
1508378175.2,286046996.1,N
1508378195.1,286046997.1,N
1508378196.0,286046997.1,N
1508378215.8,286046997.3,N
1508378235.6,286046993.3,N
1508378255.5,286046995.2,N
1508378275.3,286046996.5,N
1508378295.1,286047000.8,N
1508378315.9,286047001.9,N
1508378335.7,286047000.7,N
1508378355.5,286046997.0,N
1508378375.4,286047001.7,N
1508378395.2,286046999.3,N
